Miscellaneous Local Product
Issued by NWS North Platte, NE

Home | Current Version | Previous Version | Graphics & Text | Print | Product List | Glossary On
Versions: 1 2 3 4 5 6 7 8 9 10 11 12 13 14 15 16 17 18 19 20 21 22 23 24 25 26 27 28 29 30 31 32 33 34 35 36 37 38 39 40 41 42 43 44 45 46 47 48 49 50
000
AXUS43 KLBF 300610
MISLBF


WESTERN AND NORTH CENTRAL NEBRASKA HOURLY WEATHER ROUNDUP
NATIONAL WEATHER SERVICE NORTH PLATTE NE
100 AM CDT SUN AUG 30 2015

NOTE: "FAIR" INDICATES FEW OR NO CLOUDS BELOW 12,000 FEET WITH NO
SIGNIFICANT WEATHER AND/OR OBSTRUCTIONS TO VISIBILITY.

NOTE: STATIONS NOT REPORTING VARIABLES SUCH AS SKY/WEATHER OR
PRESSURE ARE PROVIDED BY THE NEBRASKA DEPARTMENT OF
ROADS...RAWS...AND APRS NETWORKS...AND ARE NOT UNDER
NATIONAL WEATHER SERVICE QUALITY CONTROL.

...OBSERVATIONS IN AND NEAR THE EASTERN PANHANDLE OF NEBRASKA...

CITY           SKY/WX    TMP DP  RH WIND       PRES   REMARKS
PINE RIDGE     CLEAR     76  46  34 S18G29    29.97S
CHADRON        PTCLDY    78  43  28 S23       29.94F
ALLIANCE       CLEAR     64  48  56 SE8       30.03F
SIDNEY         CLEAR     65  40  39 S9        30.10F
CRESCENT LAKE    N/A     66  51  58 S8          N/A
BIG SPRINGS      N/A     65  50  58 S10         N/A
$$

...OBSERVATIONS IN NORTH CENTRAL NEBRASKA...

CITY           SKY/WX    TMP DP  RH WIND       PRES   REMARKS
VALENTINE      CLEAR     71  59  65 SW13      29.98S
THEDFORD       CLEAR     68  61  80 S9        30.05S
AINSWORTH      CLEAR     68  62  80 S12       30.01S
O`NEILL        MOCLDY    66  64  96 S8        30.01S
ORD            CLEAR     59  58  96 CALM      30.03S
BROKEN BOW     CLEAR     62  59  90 S3        30.05S
SPRINGVIEW       N/A     67  61  81 CALM        N/A
SARGENT          N/A     63  61  93 CALM        N/A
CHAMBERS         N/A     64  62  93 S3          N/A
EWING            N/A     64  60  88 S3          N/A
$$

...OBSERVATIONS IN SOUTHWEST NEBRASKA AND FAR NORTHEAST COLORADO...

CITY           SKY/WX    TMP DP  RH WIND       PRES   REMARKS
WRAY           FAIR      70  42  36 S10       30.10S
HOLYOKE        FAIR      61  46  59 S7        30.10R
IMPERIAL       CLEAR     70  48  45 S9        30.07F
OGALLALA       CLEAR     67  53  59 SW3       30.06R
NORTH PLATTE   CLEAR     68  56  65 SE7       30.05F
MCCOOK         CLEAR     68  54  60 S8        30.06S
LEXINGTON      CLEAR     63  58  84 S7        30.05F
PAXTON           N/A     65  56  74 S9          N/A
BRADY            N/A     60  57  90 CALM        N/A
CALLAWAY         N/A     62  60  94 S7          N/A
$$

...OBSERVATIONS IN CENTRAL LINCOLN COUNTY AREA...

CITY           SKY/WX    TMP DP  RH WIND       PRES   REMARKS
N.P. AIRPORT   CLEAR     68  56  65 SE7       30.05F
N.P. DOWNTOWN    N/A     70  57  63 CALM        N/A
N.P. SOUTHEAST   N/A     69  57  65 S3          N/A
$$

...SOME OBSERVATIONS FROM AROUND THE REGION...

CITY           SKY/WX    TMP DP  RH WIND       PRES   REMARKS
DENVER         PTCLDY    71  37  28 S17       30.12F
LARAMIE        PTCLDY    56  38  50 SW7       30.23F
CHEYENNE       PTCLDY    66  42  41 S12       30.17F
SCOTTSBLUFF    PTCLDY    66  46  48 E9        30.03F
RAPID CITY     PTCLDY    70  46  42 S6        29.91F
PIERRE         CLEAR     75  60  59 S10       29.85F
WINNER         FAIR      74  59  59 S17       29.92F
SIOUX FALLS    FAIR      63  60  90 S9        30.00S
OMAHA          CLOUDY    68  64  87 S7        30.05S
GRAND ISLAND   FAIR      63  61  93 S8        30.06S
KANSAS CITY    CLOUDY    65  61  87 NW3       30.05S
WICHITA        FAIR      66  60  81 NE5       30.04S
HAYS           FAIR      61  54  77 CALM      30.07S
LIBERAL        FAIR      63  50  63 CALM      30.11S
GOODLAND       CLEAR     64  48  56 S12       30.12F
$$



USA.gov is the U.S. government's official web portal to all federal, state and local government web resources and services.